Weather Roundup
Issued by NWS

Home | Current Version | Previous Version | Graphics & Text | Print | Product List | Glossary Off
Versions: 1 2 3 4 5 6 7 8 9 10 11 12 13 14 15 16 17 18 19 20 21 22 23 24 25 26 27 28 29 30 31 32 33 34 35 36 37 38 39 40 41 42 43 44 45 46 47 48 49 50

000
NZUS93 KARX 200810
HRRWXR

CURRENT HOURLY OBSERVATIONS ACROSS
MUCH OF THE UPPER MISSISSIPPI VALLEY
NATIONAL WEATHER SERVICE LA CROSSE WI
300 AM CDT WED SEP 20 2017


...SOUTHEAST MINNESOTA...


CITY           SKY/WX    TMP DP  RH WIND       PRES   REMARKS
ROCHESTER      CLOUDY    69  64  84 S22G30    29.70F
ROCHESTER/MAYO FAIR      70  64  83 SE22G31   29.69F
WINONA         CLOUDY    70  61  73 SE13      29.73F
AUSTIN         CLOUDY    70  63  78 S13G21    29.68F
ALBERT LEA     PTCLDY    73  66  78 S22G29    29.63F
DODGE CENTER   CLOUDY    70  63  78 SE23G29   29.66F
PRESTON        CLOUDY    67  62  84 SE16G25   29.75F
OWATONNA       CLOUDY    72  64  78 S21G32    29.61F THUNDER
FARIBAULT      CLOUDY    72  64  78 S18G26    29.60F
$$

...ELSEWHERE IN MINNESOTA...


CITY           SKY/WX    TMP DP  RH WIND       PRES   REMARKS
MINNEAPOLIS    CLOUDY    73  66  78 S10G23    29.62S THUNDER
INTNL FALLS    TSTM      61  60  97 SE8       29.60R
DULUTH         CLOUDY    63  60  90 SE23G29   29.60F THUNDER
RED WING       CLOUDY    72  61  68 SE18      29.63F
REDWOOD FALLS  CLOUDY    64  61  90 SW6       29.59F
MANKATO        CLOUDY    72  66  81 S15G24    29.61R
WORTHINGTON    CLOUDY    61  58  90 W3        29.67S
FAIRMONT       CLOUDY    70  65  84 W5        29.64S
$$

...SOUTHWEST WISCONSIN...


CITY           SKY/WX    TMP DP  RH WIND       PRES   REMARKS
LA CROSSE      MOCLDY    71  64  78 SE17      29.77F
PRAIRIE DU CHI CLOUDY    67  62  83 E8        29.81F
BOSCOBEL       CLEAR     68  62  81 CALM      29.84R
LONE ROCK      MOCLDY    66  63  90 SE10      29.85S
PLATTEVILLE    CLEAR     65  65 100 SE9       29.86R
FORT MC COY    MOCLDY    66  62  85 SE9       29.83F
CAMP DOUGLAS   PTCLDY    63  62  97 E9        29.85S
MAUSTON-NEW LI PTSUNNY  N/A N/A N/A SE7       29.85S
VIROQUA        FAIR      64  64 100 SE9       29.83S
WIS DELLS      PTCLDY    63  60  90 SE7       29.87F
$$

...ELSEWHERE IN WISCONSIN...


CITY           SKY/WX    TMP DP  RH WIND       PRES   REMARKS
MILWAUKEE      MOCLDY    60  59  96 CALM      29.92R FOG
MADISON        CLEAR     62  60  93 SE7       29.89R
GREEN BAY      CLEAR     54  54 100 CALM      29.93S
EAU CLAIRE     CLOUDY    66  62  87 SE12      29.73F
BLACK RVR FLS  FAIR      65  64  96 SE5       29.81F
MEDFORD        CLOUDY    60  58  91 SE10G17   29.86F
WAUSAU         MOCLDY    60  58  92 SE8       29.89S
WIS RAPIDS     PTCLDY    61  59  93 SE10      29.88F
MARSHFIELD     CLEAR     60  57  89 SE8       29.86F FOG
RICE LAKE      CLOUDY    66  61  84 SE20G26   29.72F
$$

...NORTHEAST IOWA...


CITY           SKY/WX    TMP DP  RH WIND       PRES   REMARKS
WATERLOO       MOCLDY    69  64  84 SE16      29.73F
DUBUQUE        CLEAR     66  63  90 S12       29.85R
DECORAH        CLOUDY    68  64  88 SE12G21   29.76F
MASON CITY     CLOUDY    70  65  84 SE16G26   29.68F
CHARLES CITY   CLOUDY    70  66  88 SE13G22   29.73F
OELWEIN        CLOUDY    70  66  88 SE16G22   29.77F
$$

...ELSEWHERE IN IOWA...


CITY           SKY/WX    TMP DP  RH WIND       PRES   REMARKS
DES MOINES     CLOUDY    76  67  73 S16       29.68F
IOWA CITY      CLEAR     69  64  84 SE8       29.80S
FORT DODGE     CLEAR     74  67  78 S14G21    29.64F
MARSHALLTOWN   PTCLDY    71  66  84 SE12      29.72S
CEDAR RAPIDS   CLEAR     70  65  84 SE12      29.78R
$$

...NORTHERN ILLINOIS...


CITY           SKY/WX    TMP DP  RH WIND       PRES   REMARKS
CHICAGO-OHARE  CLEAR     63  61  93 SE5       29.90S
CHICAGO-MIDWAY CLEAR     67  65  93 SE3       29.90F
MOLINE         MOCLDY    70  63  78 SE7       29.82S
ROCKFORD       MOCLDY    63  61  93 SE6       29.90R FOG
PEORIA         CLEAR     70  65  84 S6        29.86F
$$

NOTE: "FAIR" INDICATES FEW OR NO CLOUDS BELOW 12,000 FEET WITH NO
SIGNIFICANT WEATHER AND/OR OBSTRUCTIONS TO VISIBILITY. WIND
SPEEDS ARE IN MILES-PER-HOUR.




USA.gov is the U.S. government's official web portal to all federal, state and local government web resources and services.